Flag for U.S.A. Weather past 2 weeks in Terre Haute, Indiana, U.S.A.

Now
34 °F

Sunny.


Feels Like: 34 °F
Forecast: 24 / 48 °F
Wind: No wind

Location: Terre Haute International Airport - Hulman Field

Current Time: Mar 28, 2015 at 9:51:21 PM

Latest Report: Mar 28, 2015 at 8:53 PM


Visibility: 10 mi

Pressure: 30.33 "Hg

Humidity: 59%

Dew point: 21 °F

Location of Terre HauteLocation

Historic Weather in Terre Haute — Graph

°F

Terre Haute temperature yesterday

Maximum temperature yesterday: 34 °F (at 12:53 AM)
Minimum temperature yesterday: 26 °F (at 11:53 PM)
Average temperature yesterday: 32 °F

Past Weeks' High & Low Weather Summary

 TemperatureHumidityPressure
High73 °F (Mar 16, 4:53 PM)100% (Mar 14, 12:53 AM)30.38 "Hg (Mar 14, 12:53 AM)
Low20 °F (Mar 28, 6:53 AM)26% (Mar 18, 4:53 PM)29.85 "Hg (Mar 25, 3:53 AM)
Average43 °F68%30.13 "Hg
* Reported Mar 13 8:53 PM — Mar 28 8:53 PM, Terre Haute, Weather by CustomWeather, © 2015

Note: Actual official high and low records may vary slightly from our data, if they occured in-between our weather recording intervals... More about our weather records

Advertising

Terre Haute weather history for previous 24 hours

 ConditionsComfort  
Time TempWeatherWind HumidityBarometerVisibility
8:53 PM
Sat, Mar 28
34 °FSunny.No wind59%30.33 "Hg10 mi
7:53 PM38 °FSunny.No wind30%30.31 "Hg10 mi
6:53 PM40 °FSunny.No wind28%30.31 "Hg10 mi
5:53 PM41 °FSunny.5 mph35%30.30 "Hg10 mi
4:53 PM40 °FSunny.No wind36%30.30 "Hg10 mi
3:53 PM40 °FSunny.3 mph40%30.32 "Hg10 mi
2:53 PM36 °FSunny.5 mph44%30.34 "Hg10 mi
1:53 PM35 °FSunny.No wind44%30.34 "Hg10 mi
12:53 PM33 °FSunny.5 mph43%30.35 "Hg10 mi
11:53 AM31 °FSunny.N/A47%30.35 "Hg10 mi
10:53 AM28 °FSunny.3 mph51%30.34 "Hg10 mi
9:53 AM26 °FSunny.5 mph60%30.33 "Hg10 mi
8:53 AM23 °FSunny.8 mph72%30.31 "Hg10 mi
7:53 AM20 °FClear.5 mph78%30.29 "Hg10 mi
6:53 AM20 °FClear.5 mph78%30.25 "Hg10 mi
5:53 AM21 °FClear.3 mph74%30.24 "Hg10 mi
4:53 AM22 °FClear.7 mph72%30.23 "Hg10 mi
3:53 AM23 °FClear.7 mph68%30.23 "Hg10 mi
2:53 AM23 °FClear.7 mph68%30.23 "Hg10 mi
1:53 AM24 °FClear.8 mph68%30.23 "Hg10 mi
12:53 AM25 °FClear.7 mph63%30.23 "Hg10 mi
11:53 PM
Fri, Mar 27
26 °FClear.7 mph60%30.22 "Hg10 mi
10:53 PM27 °FClear.6 mph66%30.20 "Hg10 mi
9:53 PM28 °FClear.12 mph64%30.19 "Hg10 mi
Weather by CustomWeather, © 2015

See weather overviewHow to use our weather pages